Location: Couloutre
(47.4081°N, 3.2259°E)
Time: 04:52:20
(UTC+00:00)

Cosmos 1570 Rocket - Pass Details

Date: 27 February 2020
Orbit: 762 x 789 km, 74.1° (Epoch: 09 April)

Event Time Altitude Azimuth Distance (km) Brightness Sun altitude
Rises 19:20:50 0° 201° (SSW) 3,218 7.4 -19.8°
Reaches altitude 10° 19:23:11 10° 201° (SSW) 2,298 6.6 -20.2°
Maximum altitude 19:28:25 89° 285° (WNW) 777 3.9 -21.0°
Drops below altitude 10° 19:33:43 10° 22° (NNE) 2,331 6.4 -21.9°
Sets 19:36:07 0° 23° (NNE) 3,266 7.2 -22.3°
